This demonstration page uses our WeatherBlox Daily Observations layout. Learn more.

Left ArrowRight Arrow

Hourly Observations for May 16, 2022

Temp ( °F °C ) Dew Point ( °F °C ) Humidity (%) Winds ( mph kmh ) Pressure ( in mb ) Visibility ( mi km ) Precip ( " mm )
12:51 am 00:51 Clear 78 25.6 9 -12.8 7 7 NW 10 17 29.70 1006 10 16 0.00 0.00
1:51 am 01:51 Clear 77 25 8 -13.3 7 7 NW 12 19 29.70 1006 10 16 0.00 0.00
2:51 am 02:51 Clear 72 22.2 8 -13.3 8 8 NNW 9 15 29.72 1007 10 16 0.00 0.00
3:51 am 03:51 Clear 70 21.1 9 -12.8 9 9 N 6 9 29.74 1007 10 16 0.00 0.00
4:51 am 04:51 Clear 61 16.1 7 -13.9 11 11 SE 5 7 29.76 1008 10 16 0.00 0.00
5:51 am 05:51 Sunny 62 16.7 7 -13.9 11 11 Calm 29.77 1008 10 16 0.00 0.00
6:51 am 06:51 Sunny 69 20.6 9 -12.8 9 9 E 3 6 29.79 1009 10 16 0.00 0.00
7:51 am 07:51 Sunny 76 24.4 10 -12.2 8 8 SE 5 7 29.80 1009 10 16 0.00 0.00
8:51 am 08:51 Sunny 83 28.3 13 -10.6 7 7 Calm 29.79 1009 10 16 0.00 0.00
9:51 am 09:51 Sunny 87 30.6 16 -8.9 7 7 NW 12 19 29.77 1008 10 16 0.00 0.00
10:51 am 10:51 Sunny 90 32.2 16 -8.9 6 6 W 7 11 29.76 1008 10 16 0.00 0.00
11:51 am 11:51 Sunny 92 33.3 16 -8.9 6 6 Calm 29.75 1007 10 16 0.00 0.00
12:51 pm 12:51 Sunny 94 34.4 14 -10 5 5 S 10 17 29.71 1006 10 16 0.00 0.00
1:51 pm 13:51 Sunny 94 34.4 14 -10 5 5 Calm 29.69 1005 10 16 0.00 0.00
2:51 pm 14:51 Sunny 97 36.1 14 -10 5 5 N 7 11 29.66 1004 10 16 0.00 0.00
3:51 pm 15:51 Sunny 98 36.7 14 -10 4 4 NW 10 17 29.64 1004 10 16 0.00 0.00
4:51 pm 16:51 Sunny 97 36.1 11 -11.7 4 4 NNW 12 19 29.65 1004 10 16 0.00 0.00
5:51 pm 17:51 Sunny 95 35 12 -11.1 5 5 NW 16 26 29.65 1004 10 16 0.00 0.00
6:51 pm 18:51 Sunny 91 32.8 13 -10.6 5 5 WNW 12 19 29.66 1004 10 16 0.00 0.00
7:51 pm 19:51 Clear 85 29.4 14 -10 7 7 NNW 12 19 29.67 1005 10 16 0.00 0.00
8:51 pm 20:51 Clear 81 27.2 15 -9.4 8 8 NNW 8 13 29.68 1005 10 16 0.00 0.00
9:51 pm 21:51 Clear 76 24.4 16 -8.9 10 10 WNW 10 17 29.70 1006 10 16 0.00 0.00
10:51 pm 22:51 Clear 74 23.3 15 -9.4 10 10 NW 9 15 29.71 1006 10 16 0.00 0.00
11:51 pm 23:51 Clear 76 24.4 16 -8.9 10 10 NNW 12 19 29.71 1006 10 16 0.00 0.00

Powered by AerisWeather